Location: Newark
(49.8900°N, 17.8822°E)
Time: 18:05:16
(UTC+00:00)

Envisat - Pass Details

Date: 28 August 2019
Orbit: 764 x 766 km, 98.1° (Epoch: 17 October)

Event Time Altitude Azimuth Distance (km) Brightness Sun altitude
Rises 18:38:56 0° 223° (SW) 3,225 6.4 -9.4°
Reaches altitude 10° 18:43:00 10° 256° (WSW) 2,306 6.2 -10.0°
Maximum altitude 18:44:43 12° 276° (W) 2,199 6.6 -10.2°
Drops below altitude 10° 18:46:26 10° 296° (WNW) 2,312 7.1 -10.5°
Sets 18:50:33 0° 329° (NNW) 3,246 7.4 -11.1°
